Dallas/Ft Worth, TX

7:33 AM CDT on June 22, 2017 (GMT -0500)
Dallas-Fort Worth International

Weather History for KDFW - June, 2013

Change the Weather History Date:

Wednesday, June 5, 2013

  Actual Average Record
Temperature  
Mean Temperature 82 °F 79 °F  
Max Temperature 90 °F 89 °F 102 °F (1948)
Min Temperature 73 °F 69 °F 54 °F (1970)
Degree Days  
Heating Degree Days 0 0  
Month to date heating degree days 0 0  
Since 1 June heating degree days 0 0  
Since 1 July heating degree days 2045 2284  
Cooling Degree Days 17 14  
Month to date cooling degree days 70 69  
Year to date cooling degree days 459 491  
Since 1 June cooling degree days 70 69  
Growing Degree Days 32 (Base 50)    
Moisture  
Dew Point 66 °F    
Average Humidity 62    
Maximum Humidity 79    
Minimum Humidity 44    
Precipitation  
Precipitation 0.00 in 0.14 in 2.46 in (1981)
Month to date precipitation T 0.73  
Year to date precipitation 13.16 16.98  
Sea Level Pressure  
Sea Level Pressure 29.82 in    
Wind  
Wind Speed 9 mph (SE)    
Max Wind Speed 28 mph    
Max Gust Speed 34 mph    
Visibility 10 miles    
Events      
T = Trace of Precipitation, MM = Missing Value Source: NWS Daily Summary

Daily Weather History Graph

Daily Weather History Graph

Search for Another Location

Airport or City:

Trip Planner

Search our weather history database for the weather conditions in past years. The results will help you decide how hot, cold, wet, or windy it might be!

Date:

Astronomy

Jun. 05, 2013 Rise Set
Actual Time 6:19 AM CDT 8:33 PM CDT
Civil Twilight 5:51 AM CDT 9:02 PM CDT
Nautical Twilight 5:16 AM CDT 9:37 PM CDT
Astronomical Twilight 4:39 AM CDT 10:14 PM CDT
Moon 4:17 AM CDT (6/5) 6:07 PM CDT (6/5)
Length of Visible Light 15h 10m
Length of Day
14h 14m
Waning Crescent, 8% of the Moon is Illuminated
Jun 5
Waning Crescent
Jun 8
New
Jun 16
First Quarter
Jun 23
Full
Jun 29
Last Quarter

Hourly Weather History & Observations

Time (CDT) Temp. Heat Index Dew Point Humidity Pressure Visibility Wind Dir Wind Speed Gust Speed Precip Events Conditions
12:53 AM 82.0 °F 84.1 °F 66.0 °F 58% 29.83 in 10.0 mi South 12.7 mph - N/A   Overcast
1:53 AM 81.0 °F 82.7 °F 64.9 °F 58% 29.78 in 10.0 mi SE 15.0 mph - N/A   Mostly Cloudy
2:53 AM 79.0 °F - 63.0 °F 58% 29.79 in 10.0 mi SSE 10.4 mph - N/A   Mostly Cloudy
3:53 AM 78.8 °F - 64.4 °F 61% 29.78 in 10.0 mi South 10.4 mph - N/A   Scattered Clouds
4:53 AM 75.2 °F - 66.2 °F 73% 29.81 in 10.0 mi South 9.2 mph - N/A   Scattered Clouds
5:53 AM 73.0 °F - 66.9 °F 81% 29.82 in 10.0 mi ESE 5.8 mph - N/A   Partly Cloudy
6:53 AM 73.9 °F - 66.9 °F 79% 29.86 in 10.0 mi ESE 8.1 mph - N/A   Scattered Clouds
7:53 AM 77.0 °F - 66.9 °F 71% 29.86 in 10.0 mi SSE 10.4 mph - N/A   Scattered Clouds
8:53 AM 77.0 °F - 68.0 °F 74% 29.88 in 10.0 mi South 8.1 mph - N/A   Mostly Cloudy
9:53 AM 77.0 °F - 68.0 °F 74% 29.90 in 10.0 mi East 6.9 mph - N/A   Mostly Cloudy
10:53 AM 81.0 °F 83.3 °F 66.9 °F 62% 29.91 in 10.0 mi NE 8.1 mph - N/A   Mostly Cloudy
11:53 AM 82.0 °F 83.4 °F 64.0 °F 54% 29.89 in 10.0 mi SE 6.9 mph - N/A   Mostly Cloudy
12:53 PM 84.0 °F 85.4 °F 64.0 °F 51% 29.89 in 10.0 mi SSE 12.7 mph 20.7 mph N/A   Mostly Cloudy
1:53 PM 87.1 °F 89.9 °F 66.9 °F 51% 29.85 in 10.0 mi SE 16.1 mph 23.0 mph N/A   Mostly Cloudy
2:53 PM 84.9 °F 87.1 °F 66.0 °F 53% 29.75 in 10.0 mi SE 15.0 mph 32.2 mph N/A   Mostly Cloudy
3:53 PM 89.1 °F 92.9 °F 68.0 °F 50% 29.78 in 10.0 mi SSE 13.8 mph 21.9 mph N/A   Scattered Clouds
4:53 PM 90.0 °F 92.4 °F 66.0 °F 45% 29.78 in 10.0 mi South 11.5 mph - N/A   Scattered Clouds
5:53 PM 89.1 °F 91.0 °F 64.9 °F 45% 29.77 in 10.0 mi South 5.8 mph - N/A   Scattered Clouds
6:53 PM 89.1 °F 91.0 °F 64.9 °F 45% 29.73 in 10.0 mi ESE 8.1 mph - N/A   Partly Cloudy
7:53 PM 88.0 °F 89.6 °F 64.9 °F 46% 29.75 in 10.0 mi South 3.5 mph - N/A   Partly Cloudy
8:53 PM 86.0 °F 88.8 °F 66.9 °F 53% 29.76 in 10.0 mi East 3.5 mph - N/A   Partly Cloudy
9:53 PM 84.0 °F 86.5 °F 66.9 °F 56% 29.79 in 10.0 mi ESE 4.6 mph - N/A   Mostly Cloudy
10:53 PM 82.9 °F 85.4 °F 66.9 °F 58% 29.82 in 10.0 mi ESE 3.5 mph - N/A   Scattered Clouds
11:53 PM 80.1 °F 82.3 °F 66.9 °F 64% 29.82 in 10.0 mi East 4.6 mph - N/A   Mostly Cloudy